OK1KZE-6 Weather Reports


Display with metric or nautical units.
time (UTC)temp
F
wind
direction
speed
MPH
gust
MPH
rain 1hr
in
rain 24hr
in
rain mn
in
humidity
%
barometer
mb
20260510002007 49 214 2.0 2.0 0.00 0.00 0.00 75 1019.5
20260510001508 49 231 2.0 2.0 0.00 0.00 0.00 76 1019.5
20260510001007 48 238 5.0 6.0 0.00 0.00 0.00 77 1019.6
20260510000507 49 245 7.0 8.0 0.00 0.00 0.00 76 1019.7
20260510000008 49 216 6.0 6.0 0.00 0.00 0.00 76 1019.6
20260509235507 48 218 7.0 8.0 0.00 0.00 0.00 77 1019.9
20260509235007 49 203 5.0 7.0 0.00 0.00 0.00 74 1019.9
20260509234507 49 178 8.0 8.0 0.00 0.00 0.00 74 1019.8
20260509234007 49 181 6.0 6.0 0.00 0.00 0.00 74 1019.8
20260509233508 50 218 4.0 4.0 0.00 0.00 0.00 73 1019.9
20260509233007 49 164 5.0 6.0 0.00 0.00 0.00 73 1019.7
20260509232508 49 161 8.0 8.0 0.00 0.00 0.00 74 1019.7
20260509232007 49 152 9.0 10.0 0.00 0.00 0.00 74 1019.7
20260509231508 49 140 11.0 12.0 0.00 0.00 0.00 73 1019.6
20260509231007 49 132 14.0 15.0 0.00 0.00 0.00 73 1019.7
20260509230507 50 148 12.0 17.0 0.00 0.00 0.00 72 1019.7
20260509230007 50 141 12.0 14.0 0.00 0.00 0.00 72 1020.0
20260509225508 50 141 12.0 13.0 0.00 0.00 0.00 72 1019.8
20260509225007 50 142 11.0 12.0 0.00 0.00 0.00 72 1019.8
20260509224508 50 136 14.0 15.0 0.00 0.00 0.00 72 1019.8
20260509224008 50 135 15.0 17.0 0.00 0.00 0.00 72 1019.8
20260509223508 50 123 13.0 15.0 0.00 0.00 0.00 71 1019.5
20260509223008 50 132 14.0 14.0 0.00 0.00 0.00 71 1019.7
20260509222507 50 125 12.0 15.0 0.00 0.00 0.00 72 1019.6
20260509222008 50 114 13.0 16.0 0.00 0.00 0.00 71 1019.4
20260509221507 50 113 14.0 16.0 0.00 0.00 0.00 71 1019.6
20260509221008 50 114 13.0 16.0 0.00 0.00 0.00 71 1019.6
20260509220507 50 112 13.0 14.0 0.00 0.00 0.00 71 1019.5
20260509215508 50 110 13.0 15.0 0.00 0.00 0.00 71 1019.6
20260509215007 50 110 13.0 15.0 0.00 0.00 0.00 71 1019.5
20260509214508 50 109 13.0 14.0 0.00 0.00 0.00 70 1019.8
20260509214007 50 105 13.0 14.0 0.00 0.00 0.00 70 1019.7
20260509213507 51 108 12.0 14.0 0.00 0.00 0.00 70 1019.8
20260509213008 51 107 12.0 13.0 0.00 0.00 0.00 70 1019.9
20260509212508 51 109 12.0 14.0 0.00 0.00 0.00 70 1020.1
20260509212007 51 112 12.0 12.0 0.00 0.00 0.00 70 1019.8
20260509211507 51 104 13.0 14.0 0.00 0.00 0.00 70 1019.7
20260509211008 51 107 13.0 14.0 0.00 0.00 0.00 70 1019.8
20260509210508 51 110 12.0 13.0 0.00 0.00 0.00 71 1020.0
20260509210008 51 108 12.0 14.0 0.00 0.00 0.00 71 1020.0
20260509205508 51 109 13.0 14.0 0.00 0.00 0.00 72 1019.8
20260509205008 51 107 12.0 13.0 0.00 0.00 0.00 72 1020.1
20260509204507 51 106 12.0 14.0 0.00 0.00 0.00 73 1020.1
20260509204007 51 106 12.0 13.0 0.00 0.00 0.00 73 1020.1
20260509203508 51 111 13.0 14.0 0.00 0.00 0.00 74 1020.0
20260509203008 51 107 14.0 15.0 0.00 0.00 0.00 74 1020.0
20260509202508 51 102 14.0 16.0 0.00 0.00 0.00 74 1020.1
20260509202007 51 93 16.0 17.0 0.00 0.00 0.00 73 1019.9
20260509201508 52 99 12.0 15.0 0.00 0.00 0.00 73 1020.0
20260509201008 52 103 15.0 16.0 0.00 0.00 0.00 73 1020.0
20260509200508 52 101 12.0 14.0 0.00 0.00 0.00 73 1020.2
20260509200007 52 99 13.0 14.0 0.00 0.00 0.00 74 1020.1
20260509195507 52 91 14.0 14.0 0.00 0.00 0.00 73 1020.3
20260509195008 52 93 13.0 14.0 0.00 0.00 0.00 73 1020.0
20260509194508 52 93 12.0 14.0 0.00 0.00 0.00 73 1019.8
20260509194007 52 88 14.0 14.0 0.00 0.00 0.00 72 1019.9
20260509193508 53 85 12.0 14.0 0.00 0.00 0.00 72 1019.9
20260509193008 53 88 13.0 14.0 0.00 0.00 0.00 73 1020.1
20260509192507 53 86 13.0 13.0 0.00 0.00 0.00 73 1020.0
20260509192007 53 87 12.0 13.0 0.00 0.00 0.00 73 1020.1
20260509191507 53 85 13.0 14.0 0.00 0.00 0.00 73 1019.7
20260509191008 53 85 12.0 13.0 0.00 0.00 0.00 73 1019.9
20260509190508 53 82 13.0 13.0 0.00 0.00 0.00 72 1019.9
20260509190008 53 77 12.0 14.0 0.00 0.00 0.00 72 1019.9
20260509185508 53 85 12.0 15.0 0.00 0.00 0.00 72 1020.0
20260509185008 53 80 11.0 13.0 0.00 0.00 0.00 72 1019.8
20260509184508 54 88 14.0 15.0 0.00 0.00 0.00 71 1019.9
20260509184007 54 84 13.0 14.0 0.00 0.00 0.00 71 1020.1
20260509183507 54 82 14.0 16.0 0.00 0.00 0.00 70 1020.1
20260509183008 54 76 13.0 15.0 0.00 0.00 0.00 70 1019.9
20260509182508 54 73 16.0 16.0 0.00 0.00 0.00 70 1020.1
20260509182007 54 63 8.0 12.0 0.00 0.00 0.00 70 1019.9
20260509181507 55 76 11.0 11.0 0.00 0.00 0.00 69 1019.7
20260509181006 55 64 13.0 17.0 0.00 0.00 0.00 69 1020.0
20260509180508 55 67 10.0 16.0 0.00 0.00 0.00 68 1019.9
20260509180007 55 70 11.0 14.0 0.00 0.00 0.00 67 1019.9
20260509175507 55 78 13.0 16.0 0.00 0.00 0.00 66 1020.0
20260509175009 56 65 12.0 16.0 0.00 0.00 0.00 65 1020.0
20260509174508 56 66 9.0 14.0 0.00 0.00 0.00 65 1019.9
20260509174008 56 67 11.0 13.0 0.00 0.00 0.00 65 1019.9
20260509173508 56 75 9.0 13.0 0.00 0.00 0.00 65 1019.7
20260509173008 56 70 12.0 13.0 0.00 0.00 0.00 65 1020.0
20260509172507 56 61 5.0 11.0 0.00 0.00 0.00 65 1020.0
20260509172007 56 63 10.0 16.0 0.00 0.00 0.00 64 1020.0
20260509171507 57 64 12.0 12.0 0.00 0.00 0.00 64 1020.0
20260509171008 57 63 13.0 16.0 0.00 0.00 0.00 64 1019.9
20260509170508 57 74 14.0 14.0 0.00 0.00 0.00 63 1019.9
20260509170008 57 80 11.0 16.0 0.00 0.00 0.00 63 1020.2
20260509165508 57 80 13.0 17.0 0.00 0.00 0.00 63 1019.9
20260509165007 57 77 13.0 14.0 0.00 0.00 0.00 62 1020.1
20260509164507 58 85 8.0 9.0 0.00 0.00 0.00 62 1020.1
20260509164008 58 60 10.0 11.0 0.00 0.00 0.00 61 1020.2
20260509163507 57 77 10.0 13.0 0.00 0.00 0.00 61 1020.2
20260509163008 58 53 7.0 8.0 0.00 0.00 0.00 62 1020.1
20260509162507 58 57 13.0 14.0 0.00 0.00 0.00 62 1020.2
20260509162007 58 59 8.0 10.0 0.00 0.00 0.00 61 1020.2
20260509161507 58 59 8.0 8.0 0.00 0.00 0.00 61 1020.4
20260509161007 58 65 10.0 14.0 0.00 0.00 0.00 61 1020.3
20260509160507 58 58 8.0 10.0 0.00 0.00 0.00 61 1020.3
20260509160008 58 53 10.0 12.0 0.00 0.00 0.00 60 1020.3
20260509155507 58 66 10.0 15.0 0.00 0.00 0.00 60 1020.5
20260509155008 58 42 14.0 15.0 0.00 0.00 0.00 61 1020.4
20260509154508 58 63 6.0 7.0 0.00 0.00 0.00 61 1020.4
20260509154008 58 91 5.0 8.0 0.00 0.00 0.00 61 1020.5
20260509153507 58 62 7.0 7.0 0.00 0.00 0.00 61 1020.5
20260509153008 58 85 8.0 9.0 0.00 0.00 0.00 61 1020.4
20260509152508 59 78 9.0 12.0 0.00 0.00 0.00 60 1020.3
20260509152008 59 74 8.0 13.0 0.00 0.00 0.00 60 1020.3
20260509151509 58 53 6.0 9.0 0.00 0.00 0.00 61 1020.3
20260509151007 58 28 2.0 6.0 0.00 0.00 0.00 62 1020.5
20260509150509 58 41 10.0 14.0 0.00 0.00 0.00 61 1020.5
20260509150008 58 55 6.0 8.0 0.00 0.00 0.00 61 1020.5
20260509145008 58 33 13.0 13.0 0.00 0.00 0.00 59 1020.4
20260509144508 59 78 11.0 14.0 0.00 0.00 0.00 59 1020.5
20260509144007 59 50 6.0 7.0 0.00 0.00 0.00 57 1020.5
20260509143508 60 38 5.0 8.0 0.00 0.00 0.00 58 1020.5
20260509143007 58 63 4.0 5.0 0.00 0.00 0.00 60 1020.6
20260509142507 58 41 5.0 6.0 0.00 0.00 0.00 60 1020.6
20260509142008 58 18 10.0 12.0 0.00 0.00 0.00 60 1020.6
20260509141508 60 71 13.0 16.0 0.00 0.00 0.00 61 1020.6
20260509140508 59 69 2.0 5.0 0.00 0.00 0.00 59 1020.7
20260509140009 60 59 9.0 10.0 0.00 0.00 0.00 59 1020.7
20260509135508 58 29 7.0 12.0 0.00 0.00 0.00 60 1020.6
20260509135007 57 93 5.0 6.0 0.00 0.00 0.00 63 1020.7
20260509134508 58 359 3.0 7.0 0.00 0.00 0.00 62 1020.8
20260509134007 58 89 10.0 11.0 0.00 0.00 0.00 62 1020.9
20260509133508 58 82 7.0 12.0 0.00 0.00 0.00 65 1020.6
20260509133007 58 57 10.0 11.0 0.00 0.00 0.00 63 1020.9
20260509132508 57 81 7.0 8.0 0.00 0.00 0.00 63 1020.9
20260509132007 57 49 10.0 11.0 0.00 0.00 0.00 63 1021.1
20260509131507 58 83 4.0 9.0 0.00 0.00 0.00 64 1020.9
20260509131008 57 6 4.0 4.0 0.00 0.00 0.00 64 1021.1
20260509130508 58 82 5.0 6.0 0.00 0.00 0.00 62 1021.1
20260509130009 57 82 10.0 12.0 0.00 0.00 0.00 64 1021.2
20260509125507 58 85 8.0 9.0 0.00 0.00 0.00 64 1021.1
20260509125008 59 74 2.0 4.0 0.00 0.00 0.00 62 1021.3
20260509124508 57 59 13.0 14.0 0.00 0.00 0.00 63 1021.3
20260509124007 57 55 13.0 14.0 0.00 0.00 0.00 64 1021.3
20260509123508 57 41 4.0 8.0 0.00 0.00 0.00 65 1021.4
20260509123008 57 56 5.0 8.0 0.00 0.00 0.00 65 1021.2
20260509122508 57 346 2.0 4.0 0.00 0.00 0.00 66 1021.4
20260509122006 56 3 5.0 6.0 0.00 0.00 0.00 65 1021.6
20260509121507 57 69 10.0 12.0 0.00 0.00 0.00 65 1021.4
20260509121007 57 40 6.0 8.0 0.00 0.00 0.00 62 1021.3
20260509120508 58 347 4.0 4.0 0.00 0.00 0.00 63 1021.2
20260509120008 58 6 10.0 11.0 0.00 0.00 0.00 62 1021.4
20260509115508 58 14 6.0 13.0 0.00 0.00 0.00 62 1021.4
20260509115007 58 9 6.0 7.0 0.00 0.00 0.00 63 1021.5
20260509114509 57 64 8.0 10.0 0.00 0.00 0.00 62 1021.6
20260509114008 56 38 3.0 4.0 0.00 0.00 0.00 64 1021.8
20260509113508 57 60 11.0 12.0 0.00 0.00 0.00 65 1021.6
20260509113007 58 99 7.0 8.0 0.00 0.00 0.00 63 1021.5
20260509112508 57 354 4.0 4.0 0.00 0.00 0.00 63 1021.6
20260509112007 57 17 4.0 7.0 0.00 0.00 0.00 64 1021.8
20260509111508 57 112 7.0 10.0 0.00 0.00 0.00 66 1021.6
20260509111006 57 29 4.0 6.0 0.00 0.00 0.00 65 1021.6
20260509110507 57 7 2.0 2.0 0.00 0.00 0.00 63 1021.9
20260509110008 56 340 2.0 8.0 0.00 0.00 0.00 66 1021.6
20260509105508 57 64 3.0 4.0 0.00 0.00 0.00 65 1021.7
20260509105007 57 305 2.0 2.0 0.00 0.00 0.00 67 1021.9
20260509104508 55 37 7.0 8.0 0.00 0.00 0.00 67 1021.8
20260509104008 56 30 2.0 4.0 0.00 0.00 0.00 67 1021.9
20260509103508 55 152 1.0 2.0 0.00 0.00 0.00 66 1021.8
20260509103007 55 134 4.0 4.0 0.00 0.00 0.00 66 1021.8
20260509102508 55 111 4.0 5.0 0.00 0.00 0.00 69 1021.7
20260509102007 56 100 4.0 4.0 0.00 0.00 0.00 69 1021.6
20260509101508 55 98 2.0 4.0 0.00 0.00 0.00 67 1021.7
20260509101006 55 62 2.0 3.0 0.00 0.00 0.00 69 1021.8
20260509100507 55 128 3.0 5.0 0.00 0.00 0.00 69 1021.8
20260509100008 55 68 2.0 4.0 0.00 0.00 0.00 69 1021.9
20260509095507 55 47 8.0 10.0 0.00 0.00 0.00 69 1022.0
20260509095007 55 86 3.0 4.0 0.00 0.00 0.00 70 1021.9
20260509094508 55 20 3.0 5.0 0.00 0.00 0.00 69 1021.9
20260509094007 55 0 2.0 2.0 0.00 0.00 0.00 69 1021.9
20260509093508 55 15 2.0 5.0 0.00 0.00 0.00 73 1021.6
20260509093007 56 122 3.0 3.0 0.00 0.00 0.00 73 1021.6
20260509092507 55 320 2.0 4.0 0.00 0.00 0.00 72 1021.7
20260509092008 54 46 6.0 8.0 0.00 0.00 0.00 74 1021.7
20260509091507 54 359 3.0 5.0 0.00 0.00 0.00 72 1021.8
20260509091006 54 39 2.0 2.0 0.00 0.00 0.00 71 1021.8
20260509090507 54 0 3.0 3.0 0.00 0.00 0.00 73 1022.0
20260509090007 54 49 3.0 5.0 0.00 0.00 0.00 74 1021.9
20260509085008 55 341 4.0 5.0 0.00 0.00 0.00 75 1021.7
20260509084507 54 342 2.0 2.0 0.00 0.00 0.00 75 1021.7
20260509084008 54 0 4.0 6.0 0.00 0.00 0.00 76 1022.0
20260509083507 54 79 4.0 4.0 0.00 0.00 0.00 77 1021.7
20260509083008 53 119 4.0 5.0 0.00 0.00 0.00 79 1021.8
20260509082506 54 188 1.0 1.0 0.00 0.00 0.00 79 1021.8
20260509082008 52 104 3.0 3.0 0.00 0.00 0.00 81 1021.8
20260509081508 52 76 8.0 9.0 0.00 0.00 0.00 80 1021.7
20260509081007 53 8 4.0 5.0 0.00 0.00 0.00 79 1021.8
20260509080508 53 71 2.0 3.0 0.00 0.00 0.00 81 1021.9
20260509080008 52 62 4.0 4.0 0.00 0.00 0.00 81 1021.9
20260509075508 52 102 2.0 2.0 0.00 0.00 0.00 82 1022.0
20260509075008 52 41 4.0 5.0 0.00 0.00 0.00 83 1021.7
20260509074508 52 104 2.0 3.0 0.00 0.00 0.00 83 1021.8
20260509074008 51 63 8.0 8.0 0.00 0.00 0.00 83 1022.0
20260509073507 51 95 3.0 5.0 0.00 0.00 0.00 84 1021.9
20260509073008 51 60 6.0 6.0 0.00 0.00 0.00 85 1021.8
20260509072508 51 29 8.0 10.0 0.00 0.00 0.00 85 1021.7
20260509072008 51 52 5.0 6.0 0.00 0.00 0.00 83 1021.9
20260509071508 51 47 3.0 5.0 0.00 0.00 0.00 85 1021.6
20260509071007 51 52 8.0 9.0 0.00 0.00 0.00 86 1021.5
20260509070507 51 98 4.0 7.0 0.00 0.00 0.00 85 1021.8
20260509070007 50 40 3.0 4.0 0.00 0.00 0.00 87 1021.6
20260509065507 49 40 9.0 10.0 0.00 0.00 0.00 87 1021.6
20260509065008 49 31 8.0 12.0 0.00 0.00 0.00 88 1021.4
20260509064508 49 17 5.0 8.0 0.00 0.00 0.00 88 1021.6
20260509064008 50 52 7.0 7.0 0.00 0.00 0.00 86 1021.7
20260509063508 48 63 7.0 9.0 0.00 0.00 0.00 89 1021.5
20260509063008 49 58 5.0 7.0 0.00 0.00 0.00 88 1021.2
20260509062508 49 109 3.0 5.0 0.00 0.00 0.00 90 1021.3
20260509062008 48 67 6.0 6.0 0.00 0.00 0.00 90 1021.3
20260509061508 48 50 6.0 6.0 0.00 0.00 0.00 92 1021.1
20260509061007 48 59 3.0 3.0 0.00 0.00 0.00 92 1021.3
20260509060509 48 50 4.0 6.0 0.00 0.00 0.00 92 1021.3
20260509060006 48 22 3.0 3.0 0.00 0.00 0.00 92 1021.3
20260509055508 46 62 6.0 8.0 0.00 0.00 0.00 94 1021.2
20260509055009 46 57 0.0 2.0 0.00 0.00 0.00 95 1021.1
20260509054508 46 100 1.0 2.0 0.00 0.00 0.00 95 1021.4
20260509054007 47 82 3.0 3.0 0.00 0.00 0.00 95 1021.3
20260509053508 46 340 2.0 2.0 0.00 0.00 0.00 96 1021.3
20260509052509 46 8 3.0 4.0 0.00 0.00 0.00 95 1021.1
20260509052007 46 338 3.0 3.0 0.00 0.00 0.00 94 1021.0
20260509051508 46 351 2.0 2.0 0.00 0.00 0.00 94 1021.1
20260509051008 47 89 1.0 1.0 0.00 0.00 0.00 94 1021.1
20260509050507 47 69 1.0 1.0 0.00 0.00 0.00 96 1020.9
20260509050008 45 16 2.0 2.0 0.00 0.00 0.00 96 1021.0
20260509045509 45 47 1.0 2.0 0.00 0.00 0.00 96 1020.9
20260509045007 45 57 2.0 3.0 0.00 0.00 0.00 96 1020.8
20260509044509 45 52 4.0 5.0 0.00 0.00 0.00 96 1020.8
20260509044008 45 33 2.0 3.0 0.00 0.00 0.00 96 1020.8
20260509043509 45 17 2.0 3.0 0.00 0.00 0.00 96 1020.6
20260509043007 45 33 5.0 5.0 0.00 0.00 0.00 96 1020.9
20260509042508 45 44 5.0 8.0 0.00 0.00 0.00 96 1020.7
20260509042007 44 29 7.0 8.0 0.00 0.00 0.00 96 1020.7
20260509041508 44 35 9.0 12.0 0.00 0.00 0.00 96 1020.5
20260509041007 45 38 9.0 9.0 0.00 0.00 0.00 96 1020.5
20260509040507 45 23 6.0 8.0 0.00 0.00 0.00 96 1020.7
20260509040009 44 24 5.0 8.0 0.00 0.00 0.00 97 1020.6
20260509035507 44 44 9.0 10.0 0.00 0.00 0.00 97 1020.5
20260509035008 44 28 9.0 10.0 0.00 0.00 0.00 97 1020.5
20260509034508 44 19 9.0 10.0 0.00 0.00 0.00 97 1020.4
20260509034008 45 16 8.0 9.0 0.00 0.00 0.00 97 1020.8
20260509033507 44 18 8.0 9.0 0.00 0.00 0.00 97 1020.9
20260509033008 45 18 9.0 10.0 0.00 0.00 0.00 97 1020.8
20260509032507 45 16 9.0 10.0 0.00 0.00 0.00 97 1021.0
20260509032006 45 14 8.0 9.0 0.00 0.00 0.00 96 1021.3
20260509031507 45 15 8.0 9.0 0.00 0.00 0.00 96 1021.4
20260509031008 45 23 7.0 8.0 0.00 0.00 0.00 96 1021.4
20260509030507 45 27 7.0 8.0 0.00 0.00 0.00 96 1021.3
20260509030008 45 23 7.0 8.0 0.00 0.00 0.00 96 1021.2
20260509025508 45 20 7.0 7.0 0.00 0.00 0.00 96 1021.3
20260509025008 45 20 6.0 6.0 0.00 0.00 0.00 96 1021.2
20260509024508 45 17 7.0 7.0 0.00 0.00 0.00 96 1021.5
20260509024008 45 14 7.0 7.0 0.00 0.00 0.00 95 1021.2
20260509023508 45 18 7.0 7.0 0.00 0.00 0.00 95 1021.4
20260509023007 46 23 6.0 6.0 0.00 0.00 0.00 95 1021.3
20260509022508 46 30 6.0 6.0 0.00 0.00 0.00 94 1021.2
20260509022008 46 28 5.0 6.0 0.00 0.00 0.00 95 1021.2
20260509021507 45 18 6.0 7.0 0.00 0.00 0.00 94 1021.2
20260509021006 46 9 4.0 5.0 0.00 0.00 0.00 94 1021.4
20260509020508 46 14 6.0 6.0 0.00 0.00 0.00 94 1021.4
20260509020008 46 18 6.0 7.0 0.00 0.00 0.00 93 1021.5
20260509015508 46 16 4.0 5.0 0.00 0.00 0.00 94 1021.4
20260509015008 46 17 5.0 5.0 0.00 0.00 0.00 94 1021.4
20260509014507 46 14 6.0 6.0 0.00 0.00 0.00 93 1021.4
20260509014008 46 9 5.0 5.0 0.00 0.00 0.00 93 1021.2
20260509013507 46 9 5.0 6.0 0.00 0.00 0.00 93 1021.4
20260509013008 46 5 6.0 6.0 0.00 0.00 0.00 93 1021.3
20260509012507 46 0 4.0 5.0 0.00 0.00 0.00 92 1021.1
20260509012007 46 353 4.0 5.0 0.00 0.00 0.00 92 1021.0
20260509011508 46 2 5.0 5.0 0.00 0.00 0.00 92 1020.9
20260509011006 46 8 4.0 5.0 0.00 0.00 0.00 92 1021.1
20260509010508 46 5 4.0 5.0 0.00 0.00 0.00 92 1021.3
20260509010008 46 10 5.0 5.0 0.00 0.00 0.00 91 1021.1
20260509005508 46 2 3.0 4.0 0.00 0.00 0.00 91 1021.2
20260509005009 46 356 4.0 4.0 0.00 0.00 0.00 92 1020.9
20260509004508 46 358 4.0 4.0 0.00 0.00 0.00 92 1021.0
20260509004008 46 352 4.0 4.0 0.00 0.00 0.00 91 1020.9
20260509003508 47 340 4.0 5.0 0.00 0.00 0.00 91 1020.9
20260509003007 47 12 6.0 7.0 0.00 0.00 0.00 90 1020.5
20260509002508 47 9 6.0 6.0 0.00 0.00 0.00 90 1020.6